CSN3808 ZSAM-ZBAD

Flight info

Callsign CSN3808
Flight time 2h 23m
Altitude 36100
Route K0924S1100 BUPDU5T BUPDU W643 FOC W644 AKAVO A470 EMRID V143 SAPIN A470 DPX A593 DALIM W157 AVBOX AVBOX5L
Aircraft A359/H-SDE2E3GHIJ3J4J5LM1ORWXY/LB1D1

Departure

Time 2026-05-05 12:43
Airport Xiamen Gaoqi International Airport (ZSAM)

Arrival

Time 2026-05-05 15:06
Airport Beijing Daxing International Airport (ZBAD)
Time Latitude Longitude Altitude Speed Heading
2026-05-05 11:58 24.54891 118.14048 52 ft 0 kts 232°
2026-05-05 12:29 24.54899 118.14059 50 ft 4 kts 232°
2026-05-05 12:29 24.54916 118.14082 49 ft 4 kts 231°
2026-05-05 12:29 24.54932 118.14106 47 ft 4 kts 231°
2026-05-05 12:30 24.54949 118.14129 48 ft 4 kts 231°
2026-05-05 12:30 24.54955 118.14137 46 ft 0 kts 231°
2026-05-05 12:33 24.54951 118.14132 45 ft 3 kts 231°
2026-05-05 12:33 24.54938 118.14100 48 ft 5 kts 266°
2026-05-05 12:34 24.54966 118.14059 52 ft 9 kts 317°
2026-05-05 12:34 24.54988 118.13996 52 ft 10 kts 256°
2026-05-05 12:34 24.54941 118.13924 51 ft 13 kts 231°
2026-05-05 12:34 24.54885 118.13845 48 ft 13 kts 232°
2026-05-05 12:35 24.54822 118.13757 46 ft 16 kts 232°
2026-05-05 12:35 24.54746 118.13651 49 ft 19 kts 232°
2026-05-05 12:35 24.54670 118.13543 48 ft 18 kts 232°
2026-05-05 12:35 24.54588 118.13428 48 ft 21 kts 232°
2026-05-05 12:36 24.54510 118.13316 53 ft 19 kts 232°
2026-05-05 12:36 24.54440 118.13209 50 ft 15 kts 249°
2026-05-05 12:36 24.54444 118.13106 52 ft 14 kts 248°
2026-05-05 12:36 24.54381 118.13010 51 ft 17 kts 232°
2026-05-05 12:37 24.54301 118.12899 52 ft 20 kts 232°
2026-05-05 12:37 24.54211 118.12773 53 ft 21 kts 232°
2026-05-05 12:37 24.54128 118.12658 55 ft 20 kts 232°
2026-05-05 12:37 24.54041 118.12536 54 ft 21 kts 231°
2026-05-05 12:38 24.53948 118.12406 64 ft 22 kts 232°
2026-05-05 12:38 24.53851 118.12271 56 ft 23 kts 232°
2026-05-05 12:38 24.53749 118.12129 59 ft 24 kts 231°
2026-05-05 12:38 24.53667 118.12012 60 ft 17 kts 232°
2026-05-05 12:39 24.53591 118.11906 63 ft 18 kts 232°
2026-05-05 12:39 24.53509 118.11791 62 ft 18 kts 231°
2026-05-05 12:39 24.53459 118.11697 63 ft 11 kts 270°
2026-05-05 12:39 24.53484 118.11658 60 ft 0 kts 321°
2026-05-05 12:41 24.53491 118.11652 60 ft 4 kts 321°
2026-05-05 12:41 24.53551 118.11613 64 ft 9 kts 352°
2026-05-05 12:41 24.53612 118.11652 62 ft 12 kts 45°
2026-05-05 12:42 24.53644 118.11693 61 ft 0 kts 51°
2026-05-05 12:42 24.53666 118.11724 58 ft 17 kts 52°
2026-05-05 12:43 24.53889 118.12036 55 ft 88 kts 52°
2026-05-05 12:43 24.54404 118.12759 53 ft 150 kts 52°
2026-05-05 12:43 24.55083 118.13711 662 ft 152 kts 52°
2026-05-05 12:43 24.55731 118.14570 1492 ft 143 kts 49°
2026-05-05 12:44 24.56346 118.15395 2212 ft 139 kts 52°
2026-05-05 12:44 24.56981 118.16285 2563 ft 158 kts 53°
2026-05-05 12:44 24.57680 118.17284 3044 ft 169 kts 53°
2026-05-05 12:44 24.58414 118.18351 3487 ft 185 kts 53°
2026-05-05 12:45 24.59265 118.19559 3736 ft 213 kts 52°
2026-05-05 12:45 24.60218 118.20898 4219 ft 229 kts 51°
2026-05-05 12:45 24.61145 118.22388 4767 ft 245 kts 63°
2026-05-05 12:45 24.61500 118.24251 5383 ft 255 kts 88°
2026-05-05 12:46 24.61487 118.26226 6075 ft 263 kts 91°
2026-05-05 12:46 24.61441 118.28272 6775 ft 272 kts 92°
2026-05-05 12:46 24.61402 118.30374 7494 ft 279 kts 91°
2026-05-05 12:46 24.61372 118.32526 8276 ft 285 kts 91°
2026-05-05 12:47 24.61355 118.33977 8806 ft 289 kts 91°
2026-05-05 12:47 24.61332 118.36220 9536 ft 298 kts 91°
2026-05-05 12:47 24.61295 118.38570 10012 ft 316 kts 92°
2026-05-05 12:47 24.61241 118.41041 10456 ft 334 kts 92°
2026-05-05 12:48 24.61184 118.43674 10842 ft 354 kts 92°
2026-05-05 12:48 24.61127 118.46448 11203 ft 373 kts 92°
2026-05-05 12:48 24.61069 118.49371 11560 ft 390 kts 92°
2026-05-05 12:48 24.60991 118.53375 12270 ft 402 kts 92°
2026-05-05 12:49 24.60951 118.55460 12696 ft 406 kts 93°
2026-05-05 12:49 24.60890 118.58592 13353 ft 411 kts 93°
2026-05-05 12:49 24.60827 118.61749 13972 ft 416 kts 93°
2026-05-05 12:49 24.60778 118.64942 14523 ft 421 kts 92°
2026-05-05 12:50 24.61082 118.68155 15067 ft 428 kts 78°
2026-05-05 12:50 24.62126 118.71232 15607 ft 432 kts 61°
2026-05-05 12:50 24.63893 118.73900 16123 ft 435 kts 44°
2026-05-05 12:50 24.66254 118.75960 16659 ft 433 kts 27°
2026-05-05 12:51 24.68910 118.77458 17193 ft 436 kts 23°
2026-05-05 12:51 24.71583 118.79070 17711 ft 442 kts 26°
2026-05-05 12:51 24.74261 118.80772 18239 ft 447 kts 26°
2026-05-05 12:51 24.76963 118.82506 18720 ft 451 kts 26°
2026-05-05 12:52 24.79677 118.84257 19251 ft 454 kts 26°
2026-05-05 12:52 24.82414 118.86023 19788 ft 456 kts 26°
2026-05-05 12:52 24.85162 118.87800 20295 ft 460 kts 26°
2026-05-05 12:52 24.87934 118.89592 20801 ft 463 kts 26°
2026-05-05 12:53 24.90721 118.91396 21298 ft 467 kts 25°
2026-05-05 12:53 24.93527 118.93213 21789 ft 470 kts 25°
2026-05-05 12:53 24.96352 118.95043 22269 ft 473 kts 25°
2026-05-05 12:53 24.99203 118.96892 22737 ft 477 kts 25°
2026-05-05 12:54 25.04966 119.00620 23662 ft 483 kts 24°
2026-05-05 12:54 25.07928 119.02358 24041 ft 484 kts 21°
2026-05-05 12:54 25.10936 119.04064 24451 ft 487 kts 21°
2026-05-05 12:55 25.13955 119.05793 24890 ft 491 kts 21°
2026-05-05 12:55 25.16992 119.07546 25334 ft 494 kts 22°
2026-05-05 12:55 25.20000 119.09292 25824 ft 496 kts 22°
2026-05-05 12:55 25.23099 119.11095 26299 ft 500 kts 22°
2026-05-05 12:56 25.26149 119.12873 26756 ft 503 kts 22°
2026-05-05 12:56 25.29296 119.14710 27235 ft 506 kts 22°
2026-05-05 12:56 25.32372 119.16507 27697 ft 509 kts 22°
2026-05-05 12:56 25.35516 119.18346 28194 ft 512 kts 22°
2026-05-05 12:57 25.38665 119.20188 28630 ft 515 kts 22°
2026-05-05 12:57 25.41848 119.22052 29070 ft 518 kts 22°
2026-05-05 12:57 25.45038 119.23921 29508 ft 521 kts 22°
2026-05-05 12:57 25.48262 119.25811 29938 ft 525 kts 22°
2026-05-05 12:58 25.51484 119.27745 30314 ft 530 kts 24°
2026-05-05 12:58 25.54517 119.30119 30635 ft 543 kts 36°
2026-05-05 12:58 25.57265 119.33041 30964 ft 549 kts 41°
2026-05-05 12:58 25.59923 119.36111 31281 ft 553 kts 43°
2026-05-05 12:59 25.62368 119.39027 31561 ft 556 kts 43°
2026-05-05 12:59 25.64994 119.42195 31854 ft 559 kts 43°
2026-05-05 12:59 25.67636 119.45381 32177 ft 561 kts 43°
2026-05-05 13:00 25.72923 119.51712 32853 ft 563 kts 43°
2026-05-05 13:00 25.75627 119.54844 33283 ft 560 kts 39°
2026-05-05 13:01 25.85225 119.61763 34168 ft 546 kts 21°
2026-05-05 13:01 25.88588 119.63702 34176 ft 544 kts 21°
2026-05-05 13:01 25.95347 119.67497 34177 ft 544 kts 20°
2026-05-05 13:02 26.02147 119.71264 34178 ft 546 kts 20°
2026-05-05 13:02 26.09196 119.73983 34181 ft 528 kts
2026-05-05 13:03 26.12813 119.74341 34186 ft 516 kts 351°
2026-05-05 13:03 26.16384 119.74265 34183 ft 513 kts 349°
2026-05-05 13:03 26.23513 119.73837 34182 ft 512 kts 348°
2026-05-05 13:04 26.30572 119.73335 34189 ft 512 kts 348°
2026-05-05 13:04 26.37688 119.72859 34196 ft 512 kts 348°
2026-05-05 13:05 26.44804 119.72409 34201 ft 513 kts 348°
2026-05-05 13:05 26.51961 119.72130 34197 ft 517 kts 352°
2026-05-05 13:06 26.59174 119.72375 34205 ft 519 kts 354°
2026-05-05 13:06 26.66395 119.72661 34213 ft 519 kts 353°
2026-05-05 13:07 26.73611 119.72859 34212 ft 518 kts 353°
2026-05-05 13:07 26.80825 119.73015 34219 ft 519 kts 353°
2026-05-05 13:08 26.88059 119.73162 34216 ft 519 kts 353°
2026-05-05 13:08 26.95213 119.73222 34217 ft 513 kts 348°
2026-05-05 13:09 26.98718 119.72707 34220 ft 502 kts 339°
2026-05-05 13:09 27.02026 119.71606 34219 ft 489 kts 329°
2026-05-05 13:09 27.07940 119.68104 34224 ft 477 kts 321°
2026-05-05 13:10 27.13602 119.64211 34225 ft 477 kts 320°
2026-05-05 13:10 27.19232 119.60287 34222 ft 477 kts 320°
2026-05-05 13:11 27.25206 119.56883 34223 ft 492 kts 333°
2026-05-05 13:11 27.28553 119.55908 34223 ft 504 kts 342°
2026-05-05 13:11 27.32083 119.55544 34227 ft 513 kts 350°
2026-05-05 13:12 27.39259 119.55473 34226 ft 518 kts 353°
2026-05-05 13:12 27.46475 119.55569 34227 ft 518 kts 353°
2026-05-05 13:13 27.53638 119.55659 34225 ft 518 kts 353°
2026-05-05 13:13 27.60857 119.55715 34219 ft 518 kts 353°
2026-05-05 13:14 27.68060 119.55758 34215 ft 518 kts 353°
2026-05-05 13:14 27.75252 119.55806 34223 ft 517 kts 353°
2026-05-05 13:15 27.82454 119.55842 34206 ft 517 kts 353°
2026-05-05 13:15 27.89652 119.55875 34211 ft 517 kts 353°
2026-05-05 13:16 27.96838 119.55937 34199 ft 517 kts 354°
2026-05-05 13:16 28.04042 119.56058 34198 ft 517 kts 354°
2026-05-05 13:17 28.11239 119.56184 34188 ft 517 kts 354°
2026-05-05 13:17 28.18432 119.56519 34183 ft 518 kts 357°
2026-05-05 13:18 28.25634 119.56980 34170 ft 517 kts 357°
2026-05-05 13:18 28.32831 119.57421 34177 ft 517 kts 356°
2026-05-05 13:19 28.40000 119.57824 34170 ft 515 kts 356°
2026-05-05 13:19 28.47159 119.58220 34171 ft 515 kts 357°
2026-05-05 13:20 28.54308 119.58654 34165 ft 514 kts 357°
2026-05-05 13:20 28.61442 119.59101 34159 ft 513 kts 357°
2026-05-05 13:21 28.68561 119.59545 34152 ft 512 kts 358°
2026-05-05 13:21 28.75665 119.59985 34147 ft 511 kts 358°
2026-05-05 13:22 28.82712 119.60422 34137 ft 510 kts 358°
2026-05-05 13:22 28.89788 119.60861 34136 ft 510 kts 358°
2026-05-05 13:23 28.96884 119.61301 34132 ft 509 kts 358°
2026-05-05 13:23 29.03963 119.61741 34128 ft 509 kts 358°
2026-05-05 13:24 29.11033 119.62186 34125 ft 508 kts 358°
2026-05-05 13:24 29.18089 119.62620 34121 ft 508 kts 358°
2026-05-05 13:25 29.25152 119.63043 34119 ft 507 kts 358°
2026-05-05 13:25 29.32136 119.63466 34117 ft 506 kts 358°
2026-05-05 13:26 29.39162 119.63894 34117 ft 506 kts 358°
2026-05-05 13:26 29.46199 119.64325 34113 ft 505 kts 358°
2026-05-05 13:27 29.53203 119.64648 34115 ft 501 kts 353°
2026-05-05 13:27 29.60013 119.63436 34112 ft 492 kts 342°
2026-05-05 13:28 29.66655 119.61606 34115 ft 491 kts 341°
2026-05-05 13:28 29.73277 119.59689 34109 ft 490 kts 341°
2026-05-05 13:29 29.79890 119.57787 34105 ft 489 kts 341°
2026-05-05 13:29 29.86491 119.55905 34104 ft 489 kts 341°
2026-05-05 13:30 29.93092 119.54028 34102 ft 488 kts 342°
2026-05-05 13:30 29.99685 119.52150 34099 ft 487 kts 342°
2026-05-05 13:31 30.05153 119.50590 34099 ft 487 kts 342°
2026-05-05 13:31 30.12801 119.48404 34095 ft 486 kts 342°
2026-05-05 13:32 30.19356 119.46527 34097 ft 485 kts 342°
2026-05-05 13:32 30.24813 119.44964 34097 ft 485 kts 342°
2026-05-05 13:33 30.32458 119.42771 34093 ft 485 kts 342°
2026-05-05 13:33 30.38997 119.40892 34090 ft 484 kts 343°
2026-05-05 13:34 30.45539 119.39009 34088 ft 483 kts 343°
2026-05-05 13:34 30.50960 119.37448 34090 ft 483 kts 343°
2026-05-05 13:35 30.57487 119.35565 34083 ft 483 kts 343°
2026-05-05 13:35 30.64009 119.33681 34081 ft 483 kts 343°
2026-05-05 13:36 30.70527 119.31795 34077 ft 482 kts 343°
2026-05-05 13:36 30.76995 119.29921 34071 ft 482 kts 343°
2026-05-05 13:37 30.83505 119.28034 34066 ft 481 kts 343°
2026-05-05 13:37 30.90005 119.26146 34060 ft 481 kts 343°
2026-05-05 13:38 30.96486 119.24260 34063 ft 480 kts 344°
2026-05-05 13:38 31.02965 119.22373 34059 ft 479 kts 344°
2026-05-05 13:39 31.09390 119.20499 34059 ft 478 kts 344°
2026-05-05 13:39 31.15848 119.18613 34054 ft 477 kts 344°
2026-05-05 13:40 31.22282 119.16731 34052 ft 476 kts 344°
2026-05-05 13:40 31.28706 119.14849 34054 ft 475 kts 344°
2026-05-05 13:41 31.35108 119.12971 34050 ft 474 kts 344°
2026-05-05 13:41 31.41494 119.11095 34047 ft 473 kts 345°
2026-05-05 13:42 31.47866 119.09221 34046 ft 471 kts 345°
2026-05-05 13:42 31.54208 119.07353 34047 ft 470 kts 345°
2026-05-05 13:43 31.60539 119.05468 34040 ft 468 kts 344°
2026-05-05 13:43 31.66712 119.03271 34040 ft 466 kts 339°
2026-05-05 13:44 31.72788 119.00590 34040 ft 466 kts 339°
2026-05-05 13:44 31.78830 118.97861 34036 ft 465 kts 339°
2026-05-05 13:45 31.84871 118.95141 34039 ft 464 kts 339°
2026-05-05 13:45 31.90912 118.92431 34043 ft 464 kts 339°
2026-05-05 13:46 31.96938 118.89723 34045 ft 463 kts 339°
2026-05-05 13:46 32.02957 118.87015 34047 ft 463 kts 339°
2026-05-05 13:47 32.08933 118.84325 34054 ft 462 kts 339°
2026-05-05 13:47 32.14928 118.81623 34050 ft 461 kts 339°
2026-05-05 13:48 32.20920 118.78919 34052 ft 461 kts 339°
2026-05-05 13:48 32.26909 118.76211 34048 ft 460 kts 339°
2026-05-05 13:49 32.32883 118.73507 34052 ft 460 kts 339°
2026-05-05 13:49 32.38855 118.70800 34053 ft 459 kts 339°
2026-05-05 13:50 32.44821 118.68092 34052 ft 458 kts 339°
2026-05-05 13:50 32.50762 118.65392 34052 ft 457 kts 339°
2026-05-05 13:51 32.56702 118.62687 34049 ft 456 kts 340°
2026-05-05 13:51 32.62623 118.59988 34053 ft 455 kts 340°
2026-05-05 13:52 32.68525 118.57301 34048 ft 454 kts 340°
2026-05-05 13:52 32.74499 118.55056 34047 ft 453 kts 345°
2026-05-05 13:53 32.80566 118.53029 34050 ft 451 kts 345°
2026-05-05 13:53 32.86590 118.50956 34047 ft 450 kts 344°
2026-05-05 13:54 32.92590 118.48825 34049 ft 449 kts 344°
2026-05-05 13:54 32.98572 118.46676 34051 ft 448 kts 344°
2026-05-05 13:55 33.04529 118.44533 34047 ft 447 kts 344°
2026-05-05 13:55 33.10443 118.42406 34043 ft 445 kts 344°
2026-05-05 13:56 33.16372 118.40272 34038 ft 445 kts 344°
2026-05-05 13:56 33.22299 118.38137 34042 ft 444 kts 344°
2026-05-05 13:57 33.28212 118.36008 34037 ft 444 kts 344°
2026-05-05 13:57 33.34125 118.33876 34035 ft 443 kts 344°
2026-05-05 13:58 33.40031 118.31745 34037 ft 443 kts 344°
2026-05-05 13:58 33.45895 118.29625 34033 ft 443 kts 344°
2026-05-05 13:59 33.54770 118.26412 34032 ft 442 kts 344°
2026-05-05 14:00 33.62591 118.23575 34032 ft 442 kts 344°
2026-05-05 14:00 33.69479 118.21072 34027 ft 442 kts 343°
2026-05-05 14:01 33.75365 118.18929 34025 ft 442 kts 343°
2026-05-05 14:01 33.81265 118.16778 34027 ft 443 kts 343°
2026-05-05 14:02 33.87166 118.14637 34023 ft 443 kts 343°
2026-05-05 14:02 33.93068 118.12491 34028 ft 443 kts 343°
2026-05-05 14:03 33.98971 118.10340 34021 ft 443 kts 343°
2026-05-05 14:03 34.04880 118.08196 34020 ft 444 kts 343°
2026-05-05 14:04 34.10789 118.06050 34019 ft 444 kts 343°
2026-05-05 14:04 34.16703 118.03897 34008 ft 444 kts 343°
2026-05-05 14:05 34.22619 118.01742 34013 ft 444 kts 343°
2026-05-05 14:05 34.28542 117.99583 34006 ft 444 kts 343°
2026-05-05 14:06 34.34459 117.97468 33999 ft 444 kts 343°
2026-05-05 14:06 34.40354 117.95372 34002 ft 444 kts 343°
2026-05-05 14:07 34.46279 117.93260 34001 ft 444 kts 343°
2026-05-05 14:07 34.52197 117.91143 34001 ft 443 kts 343°
2026-05-05 14:08 34.58116 117.89021 33998 ft 443 kts 342°
2026-05-05 14:08 34.64024 117.86901 33997 ft 443 kts 342°
2026-05-05 14:09 34.69941 117.84774 33994 ft 443 kts 342°
2026-05-05 14:09 34.75851 117.82647 33997 ft 442 kts 342°
2026-05-05 14:10 34.81753 117.80520 33995 ft 442 kts 342°
2026-05-05 14:10 34.87639 117.78383 33998 ft 442 kts 342°
2026-05-05 14:11 34.93494 117.76230 33994 ft 442 kts 342°
2026-05-05 14:11 34.99384 117.74069 33989 ft 441 kts 342°
2026-05-05 14:12 35.05261 117.71915 33994 ft 441 kts 342°
2026-05-05 14:12 35.11153 117.69768 33993 ft 441 kts 342°
2026-05-05 14:13 35.17025 117.67611 33986 ft 441 kts 342°
2026-05-05 14:13 35.22906 117.65443 33988 ft 441 kts 342°
2026-05-05 14:14 35.28775 117.63280 33983 ft 440 kts 342°
2026-05-05 14:14 35.34637 117.61119 33981 ft 440 kts 342°
2026-05-05 14:15 35.40452 117.58974 33973 ft 439 kts 342°
2026-05-05 14:15 35.46307 117.56809 33971 ft 439 kts 342°
2026-05-05 14:16 35.52164 117.54641 33968 ft 439 kts 342°
2026-05-05 14:16 35.58007 117.52475 33965 ft 438 kts 342°
2026-05-05 14:17 35.63837 117.50310 33962 ft 438 kts 342°
2026-05-05 14:17 35.69666 117.48142 33962 ft 437 kts 342°
2026-05-05 14:18 35.75493 117.45971 33962 ft 437 kts 341°
2026-05-05 14:18 35.81318 117.43798 33959 ft 437 kts 341°
2026-05-05 14:19 35.87155 117.41618 33959 ft 437 kts 341°
2026-05-05 14:19 35.92926 117.39458 33957 ft 437 kts 341°
2026-05-05 14:20 35.98745 117.37278 33959 ft 436 kts 341°
2026-05-05 14:20 36.04553 117.35118 33956 ft 436 kts 342°
2026-05-05 14:21 36.10367 117.32974 33957 ft 436 kts 342°
2026-05-05 14:21 36.16183 117.30825 33951 ft 435 kts 341°
2026-05-05 14:22 36.21986 117.28676 33949 ft 435 kts 341°
2026-05-05 14:22 36.27780 117.26524 33949 ft 434 kts 341°
2026-05-05 14:23 36.32589 117.24736 33943 ft 434 kts 341°
2026-05-05 14:23 36.38373 117.22584 33942 ft 434 kts 341°
2026-05-05 14:24 36.44063 117.20111 33933 ft 433 kts 337°
2026-05-05 14:24 36.49630 117.17263 33928 ft 432 kts 336°
2026-05-05 14:25 36.55177 117.14371 33923 ft 432 kts 336°
2026-05-05 14:25 36.60718 117.11477 33916 ft 431 kts 336°
2026-05-05 14:26 36.66212 117.08606 33909 ft 431 kts 336°
2026-05-05 14:26 36.71737 117.05718 33900 ft 430 kts 336°
2026-05-05 14:27 36.77258 117.02829 33892 ft 430 kts 336°
2026-05-05 14:27 36.82770 116.99941 33888 ft 429 kts 336°
2026-05-05 14:28 36.88279 116.97049 33885 ft 429 kts 336°
2026-05-05 14:28 36.93776 116.94159 33883 ft 429 kts 336°
2026-05-05 14:29 36.99277 116.91263 33874 ft 428 kts 336°
2026-05-05 14:29 37.04733 116.88386 33875 ft 428 kts 336°
2026-05-05 14:30 37.10224 116.85486 33872 ft 428 kts 335°
2026-05-05 14:30 37.15707 116.82585 33873 ft 428 kts 335°
2026-05-05 14:31 37.21214 116.79716 33865 ft 428 kts 338°
2026-05-05 14:31 37.26895 116.77435 33864 ft 429 kts 341°
2026-05-05 14:32 37.32576 116.75286 33863 ft 429 kts 341°
2026-05-05 14:32 37.38295 116.73139 33863 ft 429 kts 341°
2026-05-05 14:33 37.44012 116.70982 33856 ft 429 kts 340°
2026-05-05 14:33 37.49730 116.68814 33852 ft 429 kts 340°
2026-05-05 14:34 37.55451 116.66640 33853 ft 429 kts 340°
2026-05-05 14:34 37.61166 116.64465 33851 ft 429 kts 340°
2026-05-05 14:35 37.66885 116.62286 33850 ft 429 kts 340°
2026-05-05 14:35 37.72570 116.60116 33845 ft 429 kts 340°
2026-05-05 14:36 37.78284 116.57931 33844 ft 429 kts 340°
2026-05-05 14:36 37.84001 116.55741 33839 ft 429 kts 340°
2026-05-05 14:37 37.89718 116.53549 33837 ft 429 kts 340°
2026-05-05 14:37 37.95404 116.51247 33828 ft 427 kts 335°
2026-05-05 14:38 38.00593 116.47658 33804 ft 424 kts 325°
2026-05-05 14:38 38.03027 116.45528 33568 ft 426 kts 323°
2026-05-05 14:38 38.05444 116.43336 33291 ft 428 kts 323°
2026-05-05 14:39 38.07862 116.41105 33029 ft 430 kts 323°
2026-05-05 14:39 38.10283 116.38860 32769 ft 433 kts 322°
2026-05-05 14:39 38.12721 116.36604 32506 ft 435 kts 323°
2026-05-05 14:39 38.15166 116.34351 31983 ft 434 kts 322°
2026-05-05 14:40 38.17622 116.32086 31091 ft 436 kts 322°
2026-05-05 14:40 38.20089 116.29813 30163 ft 440 kts 322°
2026-05-05 14:40 38.22697 116.27816 29207 ft 447 kts 332°
2026-05-05 14:40 38.25630 116.26475 28452 ft 450 kts 343°
2026-05-05 14:41 38.28740 116.25988 27716 ft 455 kts 355°
2026-05-05 14:41 38.31909 116.26452 26989 ft 461 kts
2026-05-05 14:41 38.35023 116.27460 26248 ft 462 kts 11°
2026-05-05 14:41 38.38121 116.28548 25502 ft 462 kts 11°
2026-05-05 14:42 38.41220 116.29635 24767 ft 462 kts 11°
2026-05-05 14:42 38.44317 116.30713 24029 ft 462 kts 11°
2026-05-05 14:42 38.47423 116.31790 23275 ft 463 kts 12°
2026-05-05 14:42 38.50535 116.32867 22433 ft 462 kts 12°
2026-05-05 14:43 38.53622 116.33936 21670 ft 459 kts 12°
2026-05-05 14:43 38.56703 116.35003 20916 ft 457 kts 12°
2026-05-05 14:43 38.59760 116.36062 20159 ft 454 kts 12°
2026-05-05 14:43 38.62794 116.37112 19413 ft 452 kts 12°
2026-05-05 14:44 38.65784 116.38338 18684 ft 450 kts 18°
2026-05-05 14:44 38.68680 116.39847 17976 ft 448 kts 20°
2026-05-05 14:44 38.71535 116.41388 17190 ft 435 kts 20°
2026-05-05 14:44 38.74228 116.42846 16496 ft 411 kts 20°
2026-05-05 14:45 38.76865 116.44265 15826 ft 410 kts 20°
2026-05-05 14:45 38.79492 116.45675 15146 ft 409 kts 20°
2026-05-05 14:45 38.82084 116.47066 14474 ft 407 kts 20°
2026-05-05 14:45 38.84691 116.48468 13789 ft 404 kts 20°
2026-05-05 14:46 38.87272 116.49856 13066 ft 401 kts 20°
2026-05-05 14:46 38.89833 116.51234 12363 ft 396 kts 20°
2026-05-05 14:46 38.92365 116.52598 11691 ft 392 kts 20°
2026-05-05 14:46 38.94855 116.53942 11321 ft 380 kts 20°
2026-05-05 14:47 38.97234 116.55228 11204 ft 363 kts 20°
2026-05-05 14:47 38.99506 116.56456 11063 ft 346 kts 20°
2026-05-05 14:47 39.01678 116.57630 10943 ft 332 kts 20°
2026-05-05 14:47 39.03768 116.58760 10815 ft 318 kts 20°
2026-05-05 14:48 39.05763 116.59840 10676 ft 306 kts 20°
2026-05-05 14:48 39.07746 116.60680 10557 ft 297 kts
2026-05-05 14:48 39.09788 116.60700 10379 ft 289 kts 350°
2026-05-05 14:48 39.11763 116.60385 10167 ft 284 kts 349°
2026-05-05 14:49 39.13717 116.60056 9877 ft 282 kts 349°
2026-05-05 14:49 39.15685 116.59732 9558 ft 290 kts 349°
2026-05-05 14:49 39.17697 116.59409 9211 ft 292 kts 349°
2026-05-05 14:49 39.19718 116.59091 8869 ft 292 kts 349°
2026-05-05 14:50 39.21736 116.58775 8553 ft 291 kts 349°
2026-05-05 14:50 39.23744 116.58462 8227 ft 291 kts 349°
2026-05-05 14:50 39.25732 116.58153 7903 ft 290 kts 350°
2026-05-05 14:50 39.27736 116.57841 7576 ft 290 kts 350°
2026-05-05 14:51 39.29745 116.57528 7269 ft 290 kts 349°
2026-05-05 14:51 39.31744 116.57217 6949 ft 290 kts 349°
2026-05-05 14:51 39.33753 116.56911 6724 ft 290 kts 350°
2026-05-05 14:51 39.35757 116.56599 6570 ft 290 kts 349°
2026-05-05 14:52 39.37765 116.56283 6407 ft 290 kts 349°
2026-05-05 14:52 39.39772 116.55968 6235 ft 290 kts 349°
2026-05-05 14:52 39.41772 116.55655 6069 ft 290 kts 349°
2026-05-05 14:52 39.43773 116.55343 5892 ft 290 kts 349°
2026-05-05 14:53 39.45778 116.55031 5729 ft 290 kts 349°
2026-05-05 14:53 39.47782 116.54719 5565 ft 292 kts 349°
2026-05-05 14:53 39.49793 116.54409 5321 ft 291 kts 348°
2026-05-05 14:53 39.51806 116.54096 5084 ft 291 kts 348°
2026-05-05 14:54 39.53815 116.53776 4952 ft 290 kts 348°
2026-05-05 14:54 39.55801 116.53465 4801 ft 287 kts 348°
2026-05-05 14:54 39.57796 116.53169 4781 ft 290 kts 349°
2026-05-05 14:54 39.59806 116.52877 4694 ft 291 kts 347°
2026-05-05 14:55 39.61826 116.52552 4564 ft 292 kts 346°
2026-05-05 14:55 39.63819 116.52230 4449 ft 292 kts 346°
2026-05-05 14:55 39.65834 116.51905 4296 ft 291 kts 346°
2026-05-05 14:55 39.67837 116.51580 4186 ft 290 kts 347°
2026-05-05 14:56 39.69843 116.51261 4072 ft 289 kts 347°
2026-05-05 14:56 39.71839 116.50946 3931 ft 289 kts 346°
2026-05-05 14:56 39.73805 116.50638 3871 ft 276 kts 346°
2026-05-05 14:56 39.75657 116.50353 3860 ft 261 kts 346°
2026-05-05 14:57 39.77427 116.50014 3859 ft 253 kts 339°
2026-05-05 14:57 39.78973 116.49101 3859 ft 237 kts 311°
2026-05-05 14:57 39.79842 116.47484 3848 ft 204 kts 279°
2026-05-05 14:57 39.79984 116.45800 3865 ft 175 kts 259°
2026-05-05 14:58 39.79862 116.44289 3864 ft 165 kts 256°
2026-05-05 14:58 39.79708 116.42828 3869 ft 163 kts 256°
2026-05-05 14:58 39.79448 116.41408 3860 ft 160 kts 245°
2026-05-05 14:58 39.78912 116.40168 3863 ft 157 kts 230°
2026-05-05 14:59 39.78100 116.39223 3853 ft 158 kts 215°
2026-05-05 14:59 39.77030 116.38805 3868 ft 163 kts 194°
2026-05-05 14:59 39.75883 116.38717 3866 ft 167 kts 187°
2026-05-05 14:59 39.74717 116.38798 3871 ft 169 kts 184°
2026-05-05 15:00 39.73561 116.38956 3871 ft 170 kts 182°
2026-05-05 15:00 39.72769 116.39082 3869 ft 170 kts 182°
2026-05-05 15:00 39.71219 116.39331 3872 ft 170 kts 182°
2026-05-05 15:00 39.70047 116.39516 3869 ft 170 kts 182°
2026-05-05 15:01 39.68874 116.39696 3738 ft 169 kts 182°
2026-05-05 15:01 39.67706 116.39878 3515 ft 168 kts 182°
2026-05-05 15:01 39.66558 116.40063 3279 ft 165 kts 182°
2026-05-05 15:01 39.65429 116.40243 3058 ft 163 kts 182°
2026-05-05 15:02 39.64306 116.40419 2835 ft 163 kts 182°
2026-05-05 15:02 39.63181 116.40596 2628 ft 163 kts 181°
2026-05-05 15:02 39.62063 116.40776 2409 ft 158 kts 181°
2026-05-05 15:02 39.61013 116.40947 2206 ft 145 kts 182°
2026-05-05 15:03 39.60058 116.41097 2035 ft 131 kts 183°
2026-05-05 15:03 39.59189 116.41234 1867 ft 122 kts 184°
2026-05-05 15:03 39.58358 116.41362 1722 ft 121 kts 183°
2026-05-05 15:03 39.57524 116.41493 1568 ft 120 kts 182°
2026-05-05 15:04 39.56695 116.41621 1401 ft 120 kts 180°
2026-05-05 15:04 39.55865 116.41756 1264 ft 122 kts 181°
2026-05-05 15:04 39.55023 116.41885 1088 ft 121 kts 179°
2026-05-05 15:04 39.54183 116.42026 923 ft 123 kts 176°
2026-05-05 15:05 39.52427 116.42327 643 ft 129 kts 175°
2026-05-05 15:05 39.51534 116.42467 463 ft 129 kts 174°
2026-05-05 15:05 39.50641 116.42599 270 ft 128 kts 174°
2026-05-05 15:06 39.49753 116.42731 120 ft 126 kts 168°
2026-05-05 15:06 39.48961 116.42853 101 ft 92 kts 172°
2026-05-05 15:06 39.48496 116.42927 103 ft 42 kts 173°
2026-05-05 15:06 39.48257 116.42961 104 ft 33 kts 180°
2026-05-05 15:07 39.48060 116.42896 102 ft 26 kts 199°
2026-05-05 15:07 39.48021 116.42782 97 ft 10 kts 311°
2026-05-05 15:07 39.48067 116.42770 95 ft 7 kts 355°
2026-05-05 15:07 39.48127 116.42762 96 ft 10 kts 353°
2026-05-05 15:08 39.48207 116.42750 95 ft 13 kts 353°
2026-05-05 15:08 39.48308 116.42734 95 ft 16 kts 353°
2026-05-05 15:08 39.48430 116.42715 94 ft 19 kts 352°
2026-05-05 15:08 39.48570 116.42693 97 ft 19 kts 353°
2026-05-05 15:09 39.48703 116.42671 96 ft 21 kts 353°
2026-05-05 15:09 39.48855 116.42648 96 ft 23 kts 353°
2026-05-05 15:09 39.48939 116.42635 94 ft 10 kts 353°
2026-05-05 15:09 39.49017 116.42623 94 ft 13 kts 353°
2026-05-05 15:10 39.49081 116.42613 94 ft 15 kts 353°
2026-05-05 15:10 39.49191 116.42595 93 ft 17 kts 353°
2026-05-05 15:10 39.49353 116.42568 94 ft 18 kts 350°
2026-05-05 15:10 39.49431 116.42528 96 ft 17 kts 328°
2026-05-05 15:11 39.49510 116.42463 93 ft 15 kts 327°
2026-05-05 15:11 39.49656 116.42407 93 ft 18 kts 353°
2026-05-05 15:11 39.49745 116.42393 92 ft 20 kts 353°
2026-05-05 15:11 39.49942 116.42362 92 ft 22 kts 353°
2026-05-05 15:12 39.50047 116.42345 93 ft 24 kts 353°
2026-05-05 15:12 39.50220 116.42318 92 ft 23 kts 353°
2026-05-05 15:12 39.50294 116.42219 95 ft 17 kts 271°
2026-05-05 15:12 39.50280 116.42053 93 ft 20 kts 263°
2026-05-05 15:13 39.50262 116.41866 94 ft 22 kts 263°
2026-05-05 15:13 39.50244 116.41681 94 ft 21 kts 263°
2026-05-05 15:13 39.50234 116.41519 91 ft 16 kts 282°
2026-05-05 15:13 39.50313 116.41439 94 ft 15 kts 303°
2026-05-05 15:14 39.50314 116.41305 94 ft 16 kts 263°
2026-05-05 15:14 39.50301 116.41162 94 ft 14 kts 267°
2026-05-05 15:14 39.50330 116.41119 93 ft 5 kts 348°
2026-05-05 15:14 39.50373 116.41125 93 ft 7 kts
2026-05-05 15:15 39.50404 116.41130 94 ft 0 kts